QPF
0.05 0.09 0.10 0.07 0.07 0.08 0.08 0.07 0.10 0.12 0.12 0.11 0.11 0.11 0.11 0.12 0.11 0.11 0.11 0.12 0.14 0.15 0.13 0.12 0.13 0.15 0.14 0.14 0.13 0.13 0.13 0.14 0.15 0.14 0.08 0.04 0.02 0.02 0.01 0.01 0.01 0.01 0.00
0.04 0.08 0.09 0.06 0.06 0.07 0.08 0.06 0.07 0.09 0.10 0.11 0.11 0.10 0.10 0.10 0.11 0.12 0.10 0.12 0.14 0.15 0.19 0.18 0.16 0.16 0.17 0.16 0.16 0.15 0.14 0.14 0.14 0.14 0.10 0.06 0.04 0.02 0.01 0.01 0.00 0.00 0.00
0.02 0.03 0.06 0.07 0.06 0.08 0.10 0.06 0.06 0.07 0.08 0.09 0.09 0.08 0.08 0.08 0.11 0.15 0.14 0.13 0.14 0.14 0.17 0.20 0.23 0.21 0.17 0.16 0.16 0.14 0.12 0.10 0.09 0.09 0.08 0.06 0.05 0.04 0.02 0.01 0.01 0.01 0.00
0.01 0.01 0.03 0.04 0.05 0.06 0.07 0.08 0.07 0.06 0.07 0.08 0.09 0.08 0.07 0.06 0.08 0.13 0.16 0.15 0.14 0.13 0.14 0.16 0.19 0.19 0.17 0.16 0.14 0.12 0.10 0.10 0.09 0.09 0.07 0.07 0.05 0.04 0.02 0.02 0.01 0.01 0.01
0.01 0.01 0.01 0.03 0.04 0.03 0.04 0.05 0.07 0.06 0.06 0.07 0.07 0.07 0.10 0.09 0.09 0.11 0.13 0.13 0.12 0.11 0.12 0.13 0.15 0.16 0.15 0.13 0.12 0.11 0.10 0.10 0.09 0.09 0.08 0.06 0.04 0.03 0.02 0.01 0.01 0.01 0.01
0.01 0.01 0.01 0.02 0.02 0.03 0.03 0.04 0.04 0.04 0.04 0.05 0.05 0.06 0.10 0.11 0.12 0.14 0.17 0.17 0.14 0.12 0.13 0.13 0.12 0.13 0.13 0.12 0.10 0.10 0.10 0.10 0.09 0.08 0.06 0.04 0.03 0.02 0.01 0.00 0.01 0.01 0.01
0.01 0.01 0.00 0.01 0.01 0.02 0.02 0.03 0.04 0.04 0.04 0.05 0.05 0.06 0.08 0.12 0.14 0.15 0.19 0.19 0.17 0.14 0.12 0.12 0.11 0.10 0.12 0.10 0.09 0.06 0.06 0.07 0.07 0.07 0.06 0.03 0.02 0.01 0.01 0.01 0.01 0.01 0.01
0.02 0.03 0.02 0.01 0.01 0.02 0.02 0.03 0.05 0.05 0.04 0.03 0.03 0.04 0.06 0.07 0.09 0.10 0.12 0.14 0.15 0.14 0.12 0.11 0.10 0.10 0.11 0.09 0.07 0.06 0.06 0.05 0.04 0.04 0.03 0.02 0.01 0.01 0.01 0.01 0.00 0.00 0.01
0.01 0.02 0.02 0.02 0.02 0.02 0.03 0.02 0.02 0.01 0.01 0.01 0.02 0.02 0.03 0.04 0.06 0.07 0.09 0.09 0.11 0.12 0.11 0.10 0.09 0.09 0.09 0.09 0.08 0.05 0.04 0.03 0.02 0.02 0.01 0.00 0.00 0.00 0.00 0.00 0.01 0.01 0.01
0.01 0.01 0.01 0.02 0.02 0.01 0.01 0.01 0.00 0.00 0.00 0.01 0.01 0.01 0.02 0.02 0.04 0.06 0.07 0.06 0.08 0.09 0.09 0.10 0.10 0.08 0.07 0.08 0.07 0.05 0.03 0.02 0.01 0.01 0.00 0.00 0.00 0.00 0.01 0.01 0.02 0.02 0.02
0.01 0.01 0.00 0.01 0.01 0.00 0.00 0.00 0.00 0.00 0.00 0.01 0.01 0.01 0.02 0.02 0.03 0.05 0.06 0.05 0.07 0.07 0.07 0.07 0.06 0.05 0.05 0.05 0.05 0.04 0.03 0.01 0.01 0.01 0.01 0.00 0.00 0.00 0.00 0.00 0.00 0.01 0.01
0.00 0.00 0.01 0.01 0.00 0.00 0.00 0.00 0.00 0.00 0.00 0.01 0.01 0.01 0.01 0.01 0.01 0.02 0.04 0.05 0.05 0.05 0.05 0.04 0.03 0.03 0.03 0.02 0.02 0.03 0.02 0.01 0.01 0.01 0.01 0.01 0.01 0.00 0.00 0.00 0.00 0.00 0.00
0.00 0.00 0.00 0.00 0.00 0.00 0.00 0.00 0.00 0.00 0.01 0.01 0.01 0.01 0.01 0.01 0.01 0.02 0.03 0.03 0.05 0.05 0.05 0.06 0.05 0.03 0.02 0.01 0.02 0.02 0.02 0.01 0.01 0.01 0.02 0.01 0.00 0.00 0.00 0.00 0.00 0.00 0.00
0.00 0.00 0.00 0.00 0.00 0.00 0.00 0.00 0.00 0.01 0.01 0.01 0.01 0.00 0.00 0.00 0.00 0.01 0.01 0.02 0.03 0.04 0.04 0.05 0.05 0.03 0.02 0.01 0.01 0.02 0.01 0.02 0.02 0.02 0.02 0.01 0.00 0.00 0.00 0.00 0.00 0.00 0.00
0.00 0.00 0.00 0.00 0.00 0.00 0.00 0.00 0.00 0.00 0.00 0.00 0.00 0.00 0.00 0.00 0.00 0.01 0.01 0.01 0.03 0.03 0.03 0.03 0.02 0.02 0.01 0.01 0.01 0.01 0.01 0.02 0.01 0.00 0.01 0.01 0.01 0.00 0.00 0.00 0.00 0.01 0.01
0.00 0.00 0.00 0.00 0.00 0.00 0.00 0.00 0.00 0.00 0.00 0.00 0.00 0.00 0.00 0.00 0.00 0.01 0.01 0.01 0.02 0.03 0.04 0.03 0.02 0.01 0.01 0.01 0.01 0.01 0.01 0.01 0.01 0.00 0.01 0.01 0.00 0.00 0.00 0.00 0.00 0.01 0.01
0.00 0.00 0.00 0.00 0.00 0.00 0.00 0.00 0.00 0.00 0.01 0.01 0.00 0.00 0.00 0.00 0.00 0.01 0.01 0.01 0.01 0.02 0.03 0.02 0.01 0.00 0.01 0.01 0.01 0.01 0.01 0.01 0.00 0.00 0.00 0.00 0.00 0.00 0.00 0.00 0.01 0.01 0.00
0.00 0.00 0.00 0.00 0.00 0.00 0.00 0.00 0.00 0.00 0.00 0.00 0.00 0.00 0.00 0.00 0.00 0.01 0.01 0.01 0.01 0.01 0.01 0.01 0.01 0.00 0.00 0.00 0.01 0.01 0.01 0.01 0.01 0.01 0.00 0.00 0.00 0.00 0.00 0.00 0.00 0.00 0.00
0.00 0.00 0.00 0.00 0.00 0.00 0.00 0.00 0.00 0.00 0.00 0.00 0.00 0.00 0.00 0.00 0.00 0.00 0.00 0.01 0.01 0.00 0.01 0.01 0.00 0.00 0.00 0.00 0.00 0.00 0.01 0.01 0.01 0.00 0.00 0.00 0.00 0.00 0.00 0.00 0.00 0.00 0.00
0.00 0.00 0.00 0.00 0.00 0.00 0.00 0.00 0.00 0.00 0.00 0.00 0.00 0.00 0.00 0.00 0.00 0.00 0.00 0.00 0.00 0.00 0.00 0.00 0.00 0.00 0.00 0.00 0.00 0.00 0.00 0.00 0.00 0.00 0.00 0.00 0.00 0.00 0.00 0.00 0.00 0.00 0.00
0.00 0.00 0.00 0.00 0.00 0.00 0.00 0.00 0.00 0.00 0.00 0.00 0.00 0.00 0.00 0.00 0.00 0.00 0.00 0.00 0.00 0.00 0.00 0.00 0.00 0.00 0.00 0.00 0.00 0.00 0.00 0.00 0.00 0.00 0.00 0.00 0.00 0.00 0.00 0.00 0.00 0.00 0.00
0.00 0.00 0.00 0.00 0.00 0.00 0.00 0.00 0.00 0.00 0.00 0.00 0.00 0.00 0.00 0.00 0.00 0.00 0.00 0.00 0.00 0.00 0.00 0.00 0.00 0.00 0.00 0.00 0.00 0.00 0.00 0.00 0.00 0.00 0.00 0.00 0.00 0.00 0.00 0.00 0.00 0.00 0.00
0.00 0.00 0.00 0.00 0.00 0.00 0.00 0.00 0.00 0.00 0.00 0.00 0.00 0.00 0.00 0.00 0.00 0.00 0.00 0.00 0.00 0.00 0.00 0.00 0.00 0.00 0.00 0.00 0.00 0.00 0.00 0.00 0.00 0.00 0.00 0.00 0.00 0.00 0.00 0.00 0.00 0.00 0.00
0.00 0.00 0.00 0.00 0.00 0.00 0.00 0.00 0.00 0.00 0.00 0.00 0.00 0.00 0.00 0.00 0.00 0.00 0.00 0.00 0.00 0.00 0.00 0.00 0.00 0.00 0.00 0.00 0.00 0.00 0.00 0.00 0.00 0.00 0.00 0.00 0.00 0.00 0.00 0.00 0.00 0.00 0.00
0.00 0.00 0.00 0.00 0.00 0.00 0.00 0.00 0.00 0.00 0.00 0.00 0.00 0.00 0.00 0.00 0.00 0.00 0.00 0.00 0.00 0.00 0.00 0.00 0.00 0.00 0.00 0.00 0.00 0.00 0.00 0.00 0.00 0.00 0.00 0.00 0.00 0.00 0.00 0.00 0.00 0.00 0.00
0.00 0.00 0.00 0.00 0.00 0.00 0.00 0.00 0.00 0.00 0.00 0.00 0.00 0.00 0.00 0.00 0.00 0.00 0.00 0.00 0.00 0.00 0.00 0.00 0.00 0.00 0.00 0.00 0.00 0.00 0.00 0.00 0.00 0.00 0.00 0.00 0.00 0.00 0.00 0.00 0.00 0.00 0.00
MSLP
1017.49 1017.14 1016.72 1016.21 1015.63 1014.97 1014.29 1013.61 1012.97 1012.42 1011.97 1011.64 1011.42 1011.29 1011.24 1011.24 1011.29 1011.39 1011.54 1011.76 1012.07 1012.45 1012.90 1013.42 1013.96 1014.49 1014.99 1015.42 1015.77 1016.05 1016.27 1016.44 1016.60 1016.74 1016.90 1017.05 1017.21 1017.34 1017.44 1017.51 1017.55 1017.57 1017.60
1017.48 1017.12 1016.70 1016.23 1015.70 1015.12 1014.52 1013.93 1013.38 1012.90 1012.49 1012.17 1011.94 1011.77 1011.65 1011.59 1011.57 1011.60 1011.70 1011.86 1012.12 1012.45 1012.87 1013.33 1013.83 1014.32 1014.78 1015.19 1015.54 1015.84 1016.10 1016.34 1016.57 1016.80 1017.03 1017.25 1017.45 1017.61 1017.72 1017.77 1017.79 1017.78 1017.77
1017.52 1017.16 1016.76 1016.31 1015.83 1015.32 1014.81 1014.31 1013.85 1013.44 1013.09 1012.80 1012.56 1012.38 1012.23 1012.12 1012.04 1012.01 1012.05 1012.16 1012.35 1012.63 1012.97 1013.36 1013.79 1014.21 1014.61 1014.98 1015.31 1015.61 1015.90 1016.18 1016.47 1016.77 1017.07 1017.35 1017.60 1017.80 1017.94 1018.00 1018.02 1018.00 1017.98
1017.64 1017.29 1016.91 1016.50 1016.07 1015.62 1015.18 1014.75 1014.36 1014.01 1013.71 1013.46 1013.24 1013.04 1012.87 1012.72 1012.61 1012.53 1012.51 1012.56 1012.69 1012.89 1013.16 1013.47 1013.81 1014.16 1014.49 1014.81 1015.11 1015.40 1015.69 1016.00 1016.33 1016.68 1017.03 1017.37 1017.67 1017.91 1018.08 1018.17 1018.21 1018.21 1018.20
1017.84 1017.52 1017.18 1016.80 1016.41 1016.01 1015.62 1015.25 1014.91 1014.60 1014.33 1014.10 1013.88 1013.68 1013.49 1013.32 1013.17 1013.05 1012.98 1012.98 1013.05 1013.18 1013.38 1013.62 1013.88 1014.15 1014.43 1014.69 1014.95 1015.22 1015.51 1015.82 1016.17 1016.55 1016.94 1017.31 1017.65 1017.93 1018.14 1018.27 1018.34 1018.37 1018.40
1018.10 1017.84 1017.55 1017.21 1016.86 1016.49 1016.13 1015.78 1015.46 1015.17 1014.91 1014.67 1014.45 1014.24 1014.03 1013.83 1013.65 1013.49 1013.39 1013.34 1013.36 1013.44 1013.58 1013.76 1013.97 1014.19 1014.41 1014.64 1014.87 1015.12 1015.39 1015.70 1016.05 1016.44 1016.84 1017.23 1017.59 1017.89 1018.13 1018.30 1018.41 1018.48 1018.55
1018.41 1018.22 1017.98 1017.69 1017.37 1017.02 1016.67 1016.32 1016.00 1015.70 1015.43 1015.17 1014.93 1014.69 1014.46 1014.23 1014.02 1013.83 1013.69 1013.61 1013.60 1013.64 1013.75 1013.90 1014.08 1014.27 1014.47 1014.68 1014.89 1015.12 1015.38 1015.68 1016.02 1016.39 1016.77 1017.16 1017.52 1017.83 1018.09 1018.29 1018.43 1018.55 1018.66
1018.73 1018.61 1018.43 1018.18 1017.89 1017.56 1017.20 1016.85 1016.51 1016.19 1015.89 1015.60 1015.33 1015.06 1014.79 1014.53 1014.29 1014.08 1013.92 1013.81 1013.78 1013.81 1013.90 1014.04 1014.22 1014.41 1014.62 1014.83 1015.04 1015.26 1015.51 1015.79 1016.10 1016.44 1016.80 1017.16 1017.50 1017.80 1018.06 1018.28 1018.45 1018.60 1018.75
1019.04 1018.98 1018.85 1018.65 1018.38 1018.06 1017.71 1017.35 1016.99 1016.64 1016.32 1016.00 1015.70 1015.40 1015.10 1014.81 1014.54 1014.31 1014.13 1014.01 1013.96 1013.99 1014.08 1014.24 1014.43 1014.64 1014.86 1015.09 1015.32 1015.55 1015.79 1016.04 1016.33 1016.63 1016.94 1017.26 1017.57 1017.85 1018.10 1018.32 1018.50 1018.67 1018.84
1019.31 1019.30 1019.21 1019.04 1018.80 1018.50 1018.16 1017.80 1017.44 1017.09 1016.75 1016.41 1016.09 1015.76 1015.45 1015.14 1014.85 1014.60 1014.40 1014.27 1014.21 1014.24 1014.34 1014.51 1014.72 1014.96 1015.21 1015.47 1015.71 1015.95 1016.19 1016.43 1016.68 1016.95 1017.22 1017.49 1017.76 1018.00 1018.23 1018.43 1018.62 1018.79 1018.96
1019.54 1019.55 1019.49 1019.35 1019.14 1018.87 1018.55 1018.22 1017.88 1017.54 1017.20 1016.88 1016.55 1016.22 1015.90 1015.58 1015.28 1015.01 1014.79 1014.65 1014.58 1014.61 1014.71 1014.89 1015.12 1015.38 1015.66 1015.94 1016.20 1016.46 1016.69 1016.92 1017.15 1017.37 1017.60 1017.83 1018.05 1018.27 1018.47 1018.65 1018.81 1018.97 1019.14
1019.71 1019.73 1019.69 1019.58 1019.40 1019.16 1018.89 1018.60 1018.30 1018.00 1017.71 1017.41 1017.11 1016.80 1016.48 1016.16 1015.86 1015.58 1015.35 1015.18 1015.10 1015.11 1015.20 1015.38 1015.61 1015.88 1016.18 1016.47 1016.75 1017.01 1017.25 1017.47 1017.67 1017.87 1018.06 1018.25 1018.44 1018.62 1018.79 1018.94 1019.09 1019.23 1019.38
1019.84 1019.85 1019.82 1019.72 1019.58 1019.40 1019.18 1018.96 1018.72 1018.49 1018.25 1018.01 1017.75 1017.48 1017.19 1016.88 1016.58 1016.29 1016.04 1015.86 1015.75 1015.73 1015.80 1015.95 1016.17 1016.43 1016.72 1017.02 1017.30 1017.56 1017.80 1018.01 1018.20 1018.38 1018.54 1018.71 1018.87 1019.02 1019.16 1019.30 1019.42 1019.54 1019.66
1019.92 1019.92 1019.88 1019.81 1019.70 1019.57 1019.43 1019.27 1019.12 1018.96 1018.80 1018.63 1018.44 1018.21 1017.95 1017.67 1017.38 1017.09 1016.83 1016.62 1016.48 1016.43 1016.46 1016.57 1016.75 1016.99 1017.25 1017.53 1017.80 1018.06 1018.29 1018.49 1018.68 1018.84 1019.00 1019.14 1019.29 1019.42 1019.55 1019.67 1019.78 1019.88 1019.98
1019.96 1019.95 1019.91 1019.85 1019.78 1019.70 1019.62 1019.54 1019.47 1019.39 1019.31 1019.21 1019.08 1018.91 1018.71 1018.46 1018.19 1017.90 1017.64 1017.41 1017.23 1017.14 1017.12 1017.18 1017.32 1017.51 1017.74 1017.99 1018.24 1018.48 1018.70 1018.89 1019.07 1019.23 1019.38 1019.52 1019.65 1019.78 1019.91 1020.02 1020.12 1020.21 1020.29
1019.96 1019.93 1019.90 1019.86 1019.82 1019.78 1019.75 1019.74 1019.73 1019.73 1019.72 1019.69 1019.62 1019.51 1019.34 1019.14 1018.89 1018.63 1018.36 1018.12 1017.93 1017.79 1017.74 1017.75 1017.84 1017.98 1018.16 1018.37 1018.59 1018.81 1019.01 1019.20 1019.36 1019.52 1019.67 1019.81 1019.94 1020.07 1020.20 1020.31 1020.41 1020.50 1020.58
1019.91 1019.88 1019.85 1019.82 1019.80 1019.80 1019.82 1019.85 1019.89 1019.94 1019.98 1020.00 1019.98 1019.92 1019.80 1019.64 1019.43 1019.19 1018.94 1018.71 1018.51 1018.36 1018.27 1018.25 1018.29 1018.39 1018.53 1018.70 1018.88 1019.07 1019.25 1019.42 1019.58 1019.73 1019.87 1020.01 1020.15 1020.28 1020.41 1020.53 1020.64 1020.75 1020.83
1019.81 1019.78 1019.75 1019.74 1019.74 1019.76 1019.80 1019.85 1019.92 1020.00 1020.07 1020.12 1020.14 1020.11 1020.04 1019.92 1019.75 1019.56 1019.35 1019.14 1018.96 1018.81 1018.72 1018.68 1018.69 1018.76 1018.86 1018.99 1019.14 1019.30 1019.45 1019.60 1019.74 1019.88 1020.01 1020.14 1020.28 1020.41 1020.55 1020.68 1020.81 1020.92 1021.03
1019.64 1019.63 1019.61 1019.61 1019.62 1019.64 1019.69 1019.75 1019.82 1019.91 1019.98 1020.05 1020.08 1020.09 1020.05 1019.97 1019.86 1019.72 1019.56 1019.40 1019.26 1019.15 1019.07 1019.04 1019.05 1019.10 1019.18 1019.28 1019.40 1019.53 1019.65 1019.77 1019.89 1020.01 1020.12 1020.24 1020.37 1020.50 1020.63 1020.77 1020.91 1021.04 1021.17
1019.43 1019.42 1019.42 1019.42 1019.43 1019.45 1019.49 1019.54 1019.60 1019.67 1019.73 1019.79 1019.84 1019.86 1019.86 1019.83 1019.77 1019.69 1019.60 1019.52 1019.44 1019.38 1019.34 1019.34 1019.36 1019.42 1019.49 1019.58 1019.68 1019.78 1019.88 1019.98 1020.07 1020.16 1020.25 1020.34 1020.44 1020.56 1020.68 1020.81 1020.95 1021.10 1021.25
1019.17 1019.18 1019.18 1019.18 1019.19 1019.20 1019.22 1019.24 1019.28 1019.32 1019.36 1019.40 1019.45 1019.48 1019.51 1019.52 1019.52 1019.51 1019.50 1019.49 1019.49 1019.50 1019.52 1019.57 1019.63 1019.71 1019.80 1019.89 1019.98 1020.07 1020.15 1020.22 1020.28 1020.34 1020.39 1020.46 1020.53 1020.61 1020.71 1020.83 1020.96 1021.11 1021.27
1018.88 1018.90 1018.90 1018.90 1018.90 1018.89 1018.88 1018.88 1018.88 1018.88 1018.90 1018.92 1018.96 1019.00 1019.04 1019.09 1019.15 1019.20 1019.27 1019.34 1019.42 1019.51 1019.61 1019.71 1019.83 1019.95 1020.06 1020.17 1020.27 1020.35 1020.42 1020.47 1020.51 1020.54 1020.57 1020.59 1020.63 1020.67 1020.74 1020.83 1020.94 1021.08 1021.23
1018.57 1018.59 1018.60 1018.59 1018.57 1018.54 1018.51 1018.47 1018.44 1018.41 1018.40 1018.40 1018.41 1018.45 1018.51 1018.59 1018.68 1018.80 1018.92 1019.07 1019.22 1019.39 1019.56 1019.73 1019.90 1020.07 1020.23 1020.36 1020.49 1020.58 1020.66 1020.71 1020.73 1020.74 1020.74 1020.74 1020.74 1020.75 1020.78 1020.83 1020.91 1021.02 1021.15
1018.24 1018.26 1018.26 1018.25 1018.21 1018.16 1018.10 1018.04 1017.97 1017.92 1017.87 1017.85 1017.85 1017.88 1017.94 1018.03 1018.15 1018.30 1018.48 1018.68 1018.89 1019.12 1019.35 1019.58 1019.81 1020.03 1020.24 1020.42 1020.57 1020.70 1020.80 1020.86 1020.89 1020.90 1020.89 1020.87 1020.84 1020.82 1020.81 1020.82 1020.87 1020.94 1021.04
1017.89 1017.90 1017.90 1017.87 1017.82 1017.76 1017.68 1017.59 1017.50 1017.42 1017.35 1017.30 1017.28 1017.30 1017.35 1017.44 1017.57 1017.74 1017.94 1018.17 1018.42 1018.69 1018.97 1019.25 1019.53 1019.80 1020.06 1020.29 1020.49 1020.66 1020.79 1020.89 1020.95 1020.97 1020.97 1020.95 1020.91 1020.87 1020.84 1020.82 1020.82 1020.85 1020.92
1017.49 1017.50 1017.49 1017.45 1017.40 1017.32 1017.23 1017.12 1017.02 1016.92 1016.83 1016.76 1016.72 1016.72 1016.76 1016.84 1016.95 1017.12 1017.32 1017.55 1017.82 1018.11 1018.42 1018.73 1019.05 1019.37 1019.67 1019.95 1020.20 1020.43 1020.61 1020.76 1020.86 1020.92 1020.95 1020.95 1020.92 1020.88 1020.83 1020.79 1020.77 1020.77 1020.79
Thickness
5634 5636 5638 5641 5643 5646 5649 5652 5655 5659 5664 5669 5672 5676 5680 5683 5686 5688 5691 5694 5695 5696 5697 5697 5696 5696 5695 5696 5696 5697 5697 5696 5692 5691 5693 5694 5693 5695 5694 5694 5695 5695 5694
5633 5635 5636 5638 5639 5642 5645 5648 5651 5653 5657 5661 5665 5669 5672 5675 5679 5683 5685 5687 5689 5690 5690 5691 5691 5691 5690 5690 5690 5690 5690 5690 5688 5685 5685 5685 5686 5687 5687 5687 5687 5688 5687
5633 5634 5635 5635 5636 5638 5641 5644 5647 5650 5652 5654 5658 5662 5666 5668 5671 5675 5679 5681 5682 5684 5685 5685 5686 5686 5684 5684 5684 5684 5684 5684 5683 5681 5679 5679 5679 5679 5680 5679 5681 5680 5680
5632 5632 5632 5633 5633 5634 5637 5639 5642 5645 5647 5649 5652 5655 5658 5661 5664 5667 5671 5673 5675 5677 5678 5679 5680 5680 5679 5679 5679 5679 5679 5678 5676 5675 5673 5672 5672 5673 5673 5672 5672 5673 5673
5632 5630 5630 5631 5632 5633 5634 5636 5637 5639 5641 5644 5647 5649 5651 5654 5656 5659 5662 5665 5667 5668 5670 5672 5673 5674 5674 5675 5675 5674 5674 5672 5670 5669 5668 5667 5666 5665 5666 5666 5666 5666 5666
5632 5629 5628 5629 5629 5630 5631 5632 5633 5634 5636 5639 5641 5643 5645 5646 5648 5651 5656 5658 5660 5662 5663 5665 5666 5667 5666 5666 5666 5667 5668 5668 5666 5665 5663 5662 5662 5661 5661 5661 5661 5660 5657
5632 5630 5628 5628 5628 5628 5629 5629 5630 5631 5632 5633 5635 5637 5639 5639 5642 5645 5648 5652 5654 5655 5657 5658 5660 5660 5661 5660 5659 5658 5659 5660 5661 5663 5660 5659 5659 5658 5657 5657 5656 5656 5652
5633 5631 5628 5627 5626 5625 5626 5626 5628 5628 5628 5629 5630 5632 5633 5635 5637 5640 5643 5647 5648 5650 5652 5653 5654 5654 5654 5655 5655 5655 5654 5654 5655 5657 5657 5656 5655 5655 5655 5654 5652 5650 5648
5632 5630 5628 5627 5625 5624 5623 5623 5624 5626 5625 5626 5626 5627 5629 5630 5632 5635 5638 5641 5642 5643 5645 5647 5648 5648 5645 5647 5650 5649 5648 5646 5645 5645 5646 5646 5645 5646 5647 5649 5647 5647 5643
5633 5631 5629 5627 5625 5623 5622 5622 5622 5623 5623 5624 5623 5623 5624 5625 5626 5630 5633 5636 5636 5637 5638 5638 5637 5639 5639 5642 5646 5646 5643 5642 5642 5641 5641 5641 5642 5641 5641 5645 5644 5643 5641
5636 5633 5630 5628 5626 5623 5622 5621 5621 5621 5621 5622 5620 5619 5619 5619 5621 5623 5627 5631 5631 5632 5632 5632 5631 5631 5634 5637 5640 5642 5639 5640 5640 5640 5639 5638 5639 5638 5638 5638 5638 5638 5636
5638 5635 5632 5629 5627 5625 5622 5621 5620 5620 5620 5619 5618 5617 5617 5616 5615 5617 5620 5623 5626 5627 5626 5627 5625 5625 5628 5630 5632 5631 5632 5635 5637 5636 5634 5633 5632 5631 5631 5631 5630 5629 5627
5641 5638 5634 5632 5628 5625 5623 5622 5621 5619 5618 5617 5616 5614 5614 5613 5613 5612 5614 5616 5619 5621 5619 5619 5619 5621 5623 5624 5624 5626 5629 5632 5632 5631 5628 5626 5626 5626 5625 5624 5624 5622 5620
5644 5641 5637 5634 5631 5628 5624 5623 5620 5618 5616 5615 5613 5612 5612 5611 5611 5612 5613 5613 5613 5615 5615 5613 5615 5616 5618 5618 5620 5623 5625 5626 5626 5625 5624 5623 5622 5621 5621 5621 5620 5619 5616
5648 5645 5641 5636 5633 5629 5626 5620 5619 5615 5612 5612 5612 5612 5610 5609 5605 5606 5610 5612 5613 5613 5614 5615 5616 5617 5617 5617 5618 5619 5620 5621 5621 5621 5621 5620 5619 5618 5617 5617 5616 5616 5613
5652 5648 5644 5640 5635 5633 5630 5625 5616 5614 5611 5609 5608 5609 5608 5605 5604 5605 5606 5607 5608 5609 5613 5613 5612 5613 5613 5614 5615 5615 5616 5617 5617 5618 5618 5618 5617 5616 5615 5614 5613 5612 5610
5655 5651 5647 5643 5640 5636 5633 5630 5626 5619 5614 5612 5610 5608 5607 5606 5605 5605 5606 5606 5607 5610 5612 5611 5611 5611 5611 5611 5612 5613 5613 5613 5614 5615 5615 5615 5615 5614 5613 5612 5611 5609 5607
5658 5653 5649 5646 5643 5640 5637 5634 5630 5627 5624 5620 5614 5610 5609 5608 5607 5607 5607 5609 5610 5611 5611 5610 5610 5609 5609 5610 5610 5610 5611 5611 5612 5612 5613 5613 5613 5612 5611 5610 5608 5607 5605
5661 5658 5654 5651 5647 5644 5640 5637 5634 5631 5628 5625 5623 5617 5612 5611 5610 5609 5611 5614 5613 5611 5611 5610 5609 5609 5609 5609 5609 5609 5610 5610 5610 5611 5611 5610 5611 5610 5609 5608 5606 5599 5603
5663 5657 5654 5654 5651 5648 5644 5641 5638 5635 5632 5630 5627 5624 5621 5619 5618 5616 5615 5615 5614 5613 5612 5611 5610 5609 5610 5609 5609 5609 5610 5609 5609 5610 5610 5610 5609 5609 5608 5606 5606 5604 5602
5666 5662 5654 5655 5654 5651 5648 5645 5642 5638 5636 5633 5630 5625 5620 5623 5622 5619 5618 5617 5616 5615 5613 5612 5611 5610 5610 5609 5610 5610 5610 5610 5609 5609 5610 5609 5609 5608 5607 5606 5604 5603 5601
5668 5666 5662 5660 5657 5654 5651 5648 5645 5642 5640 5637 5634 5630 5622 5625 5625 5623 5621 5619 5618 5616 5615 5613 5613 5612 5611 5610 5611 5611 5611 5611 5610 5609 5609 5608 5607 5606 5606 5605 5603 5602 5599
5669 5667 5664 5662 5659 5654 5651 5651 5649 5647 5644 5642 5639 5636 5632 5630 5629 5627 5625 5623 5620 5619 5617 5615 5615 5614 5612 5611 5611 5611 5611 5611 5610 5609 5609 5608 5607 5606 5605 5604 5601 5600 5598
5669 5667 5666 5663 5661 5658 5656 5655 5653 5650 5648 5646 5643 5641 5638 5635 5633 5631 5629 5626 5624 5622 5620 5618 5617 5616 5614 5612 5611 5610 5610 5609 5608 5607 5606 5607 5606 5606 5604 5602 5600 5598 5596
5668 5667 5665 5664 5662 5660 5659 5657 5655 5654 5651 5649 5647 5645 5643 5640 5638 5635 5633 5630 5627 5625 5623 5621 5619 5618 5616 5614 5613 5611 5609 5607 5606 5606 5605 5605 5605 5604 5603 5601 5599 5597 5595
5666 5665 5664 5663 5662 5660 5659 5658 5657 5656 5654 5652 5651 5649 5646 5644 5642 5640 5637 5634 5631 5629 5627 5624 5622 5620 5618 5616 5614 5612 5609 5607 5605 5604 5604 5604 5604 5603 5601 5600 5598 5596 5593